Regional Weather Roundup
Issued by NWS Grand Forks, ND

Home | Current Version | Previous Version | Graphics & Text | Print | Product List | Glossary On
Versions: 1 2 3 4 5 6 7 8 9 10 11 12 13 14 15 16 17 18 19 20 21 22 23 24 25 26 27 28 29 30 31 32 33 34 35 36 37 38 39 40 41 42 43 44 45 46 47 48 49 50
224
ASUS43 KFGF 312231
RWRFGF
PRAIRIE TO PINES  WEATHER ROUNDUP
NATIONAL WEATHER SERVICE EASTERN NORTH DAKOTA/GRAND FORKS ND
500 PM CDT WED AUG 31 2016

 **SATELLITE DATA USED TO AUGMENT SKY COVER AT AUTOMATED STATIONS**
 *****  WEATHER ACROSS EASTERN NORTH DAKOTA  *****

CITY           SKY/WX    TMP DP  RH WIND       PRES   REMARKS
GRAND FORKS    MOSUNNY   77  55  46 NE9       30.19F
GRAND FRKS AFB SUNNY     75  55  49 E9        30.20F
GRAND FRKS NWS   N/A     75 N/A N/A NE7         N/A
DEVILS LAKE    MOSUNNY   73  54  51 E10       30.21F
FARGO          SUNNY     78  55  44 E9        30.18F
WAHPETON ARPT  CLEAR     79  46  31 NE3       30.18F
$$

 ***** WEATHER ACROSS CENTRAL AND WESTERN NORTH DAKOTA  *****

CITY           SKY/WX    TMP DP  RH WIND       PRES   REMARKS
BISMARCK       SUNNY     85  58  39 SE18      30.11F
MINOT          CLOUDY    78  60  53 E22G33    30.15R
JAMESTOWN      MOSUNNY   79  56  45 SE9       30.18F
MINOT AFB      PTSUNNY   76  60  57 E22G30    30.13S
GARRISON         N/A     87  64  46 SE13      30.11R
WILLISTON      SUNNY     96  50  20 SE15G24   29.98F HX  93
DICKINSON      SUNNY     89  48  24 S24G36    30.06F
HETTINGER      SUNNY     89  51  27 S20G30    30.12F
$$

 *****  OTHER AIRPORT OBSERVATIONS IN OUR AREA  *****

CITY           SKY/WX    TMP DP  RH WIND       PRES   REMARKS
WALHALLA       FAIR      72  66  83 E8        30.23S
GRAFTON AIRPOR FAIR      73  55  53 NE9       30.23S
VALLEY CITY AR FAIR      75  55  50 E9        30.21S
CANDO          FAIR      72  54  53 SE6       30.23F
CAVALIER APRT  FAIR      73  54  49 E6        30.23R
GWINNER        FAIR      79  57  47 E8        30.18F
SHEYENNE NWR     N/A     80  55  41 E6        29.95S
ROLLA          FAIR      70  54  56 E8        30.23F
 ***** THE ABOVE OBSERVATIONS ARE NON NWS ARE NOT QUALITY
       CONTROLLED AND MAY MIS-REPORT RAIN FOR SNOW...
$$

  *****  WEATHER ACROSS NORTHERN MINNESOTA  *****

CITY           SKY/WX    TMP DP  RH WIND       PRES   REMARKS
FLAG ISLAND    SUNNY     66  52  59 N3        30.23F
WARROAD        SUNNY     70  57  64 E8        30.24F
ROSEAU         SUNNY     72  55  56 E7        30.23F
HALLOCK        SUNNY     73  54  49 NE3       30.22S
THF RVR FALLS  SUNNY     72  55  55 NE10      30.23F
BAUDETTE       SUNNY     69  55  60 NW12      30.24S
WASKISH        MOSUNNY   72  55  56 N3        30.22F
CROOKSTON      SUNNY     75  54  46 NE6       30.21S
STEPHEN NDAWN    N/A     73  54  49 NE5         N/A
GREENBUSH NDAW   N/A     73  54  49 E5          N/A
$$
  *****  WEATHER ACROSS CENTRAL AND WEST MINNESOTA  *****

CITY           SKY/WX    TMP DP  RH WIND       PRES   REMARKS
FOSSTON        SUNNY     75  61  60 NE3       30.22F
BEMIDJI        SUNNY     70  55  57 NE10G16   30.22F
PARK RAPIDS    SUNNY     75  50  41 N10       30.20F
ELBOW LAKE     FAIR      76  55  46 NW3       30.19F
WADENA         SUNNY     75  54  46 N7        30.19F
DETROIT LAKES  SUNNY     73  52  46 N5        30.21F
MOORHEAD       SUNNY     79  52  38 NE8       30.19F
FERGUS FALLS   SUNNY     77  52  41 CALM      30.19F
MORRIS MN      SUNNY     81  54  39 CALM      30.17F
STAPLES        SUNNY     75  48  38 N7        30.19F
$$
  *****  WEATHER ELSEWHERE ACROSS MINNESOTA  *****

CITY           SKY/WX    TMP DP  RH WIND       PRES   REMARKS
DULUTH         PTSUNNY   71  54  54 N9        30.19S
INTRNTL FALLS  MOSUNNY   71  52  50 N9        30.22S
ELY            CLOUDY    66  52  59 N3        30.20S
CLOQUET        PTSUNNY   72  52  49 NE9       30.18F
WHEATON        SUNNY     82  55  39 CALM      30.18F
BRAINERD       SUNNY     73  52  47 NW7       30.20F
HIBBING        CLOUDY    68  52  56 N7        30.21S
ALEXANDRIA     SUNNY     78  52  40 NW7       30.21F
SAINT CLOUD    SUNNY     77  55  46 N7        30.17F
MINNEAPOLIS    MOSUNNY   79  52  38 N9        30.16F
$$

  *****  WEATHER ACROSS SOUTH DAKOTA  *****

CITY           SKY/WX    TMP DP  RH WIND       PRES   REMARKS
SIOUX FALLS    MOSUNNY   83  59  44 NE8       30.19S
BROOKINGS      CLOUDY    80  58  46 NE5       30.19F
WATERTOWN      SUNNY     80  53  39 SW3       30.19F
HURON          SUNNY     83  61  47 VRB3      30.16F
SISSETON         N/A     79  57  46 E5        30.17F
ABERDEEN       MOSUNNY   81  61  50 S5        30.16F
MITCHELL       SUNNY     84  58  40 VRB3      30.17F
PIERRE         SUNNY     86  59  39 SE14      30.12F
MOBRIDGE       SUNNY     82  64  54 E21G26    30.12F
RAPID CITY     SUNNY     82  56  40 S16G23    30.16F
$$

  *****  SOME WEATHER IN NEARBY STATES *****

CITY           SKY/WX    TMP DP  RH WIND       PRES   REMARKS
GLASGOW MT     SUNNY     97  45  16 SE17      29.87F HX  93
GREAT FALLS MT MOSUNNY   93  32  11 N3        29.90S
CHEYENNE WY    SUNNY     74  50  42 SE8       30.28F
SCOTTSBLUFF NE SUNNY     81  58  45 E17       30.19F
OMAHA NE       PTSUNNY   81  59  47 N9        30.14F
DES MOINES IA  PTSUNNY   81  56  42 NE12      30.11F
DAVENPORT IA   MOSUNNY   77  60  55 NE12      30.09S
CHICAGO IL     MOSUNNY   74  51  44 NE20      30.08R
EAU CLAIRE WI  MOSUNNY   77  52  41 NW10      30.14S
LA CROSSE WI   SUNNY     79  54  41 N9        30.12F
$$

  *****  SOME NATIONAL WEATHER *****

CITY           SKY/WX    TMP DP  RH WIND       PRES   REMARKS
LA GUARDIA NY  CLOUDY    83  68  60 S14       29.87S
RALEIGH NC     MOSUNNY   86  69  56 S9        29.91S THUNDER HX  90
ATLANTA GA     MOSUNNY   92  63  38 VRB7      29.90F HX  93
NEW ORLEANS LA MOSUNNY   95  73  48 N9        29.80F HX 104
OKLAHOMA CITY  CLOUDY    77  68  73 NE12      30.01F THUNDER
ALBUQUERQUE NM MOSUNNY   81  51  35 VRB6      30.20F
SALT LAKE CITY PTSUNNY   96  34  11 N9        29.99F HX  91
LOS ANGELES CA SUNNY     76  62  62 W15       29.84F
BOISE ID       MOSUNNY   92  38  15 NW9       29.86F
SEATTLE WA     CLOUDY    66  58  75 S7        29.99F
$$

*** WEATHER ACROSS MANITOBA...SASKATCHEWAN AND ONTARIO ***
                ***ONTARIO***

CITY           SKY/WX    TMP DP  RH WIND       PRES   REMARKS
GERALDTON      CLOUDY    59  50  72 N7        30.17S
THUNDER BAY    PTSUNNY   70  52  52 NW12      30.16R
SIOUX LOOKOUT  MOSUNNY   64  50  59 N6        30.25S
TORONTO        MOSUNNY   77  55  47 N17G29    29.90R
BIG TROUT LK   LGT RAIN  52  48  87 N8        30.31R
PICKLE LAKE    CLOUDY    59  50  72 N6        30.27R
DRYDEN         PTSUNNY   63  52  67 N9        30.25S
KENORA         MOSUNNY   64  52  63 NE7       30.26S
$$
                *** MANITOBA***

CITY           SKY/WX    TMP DP  RH WIND       PRES   REMARKS
BRANDON        CLOUDY    73  54  49 E15       30.21F
DAUPHIN        SUNNY     66  55  68 E15       30.24F
ISLAND LAKE    PTSUNNY   57  50  77 NE6       30.34S
PILOT MOUND      N/A     72  52  49 E7          N/A
THE PAS        MOSUNNY   66  48  52 SE10G17   30.28F
THOMPSON       MOSUNNY   64  45  48 SE6       30.32F
WINNIPEG       PTSUNNY   68  54  60 NE6       30.24F
LYNN LAKE      SUNNY     66  46  48 MISG      30.28F
CHURCHILL      MOSUNNY   55  43  62 NE3       30.36S
GILLAM         MOSUNNY   63  45  51 N5        30.34F
$$
                ***SASKATCHEWAN***

CITY           SKY/WX    TMP DP  RH WIND       PRES   REMARKS
ESTEVAN        PTSUNNY   77  59  53 E24G37    30.05F
KINDERSLEY     MOSUNNY   81  61  50 SE22G32   29.90F
LLOYDMINSTER   PTSUNNY   79  57  47 SE16G25   29.95
PRINCE ALBERT  CLOUDY    73  55  53 E18       30.10F
REGINA         CLOUDY    79  57  47 SE25G33   30.03F
YORKTON        SUNNY     73  55  53 E18G24    30.16F
N. BATTLEFORD  SUNNY     79  50  36 SE25G32   29.99F
LA RONGE       PTSUNNY   68  52  56 E14G22    30.18F
SASKATOON      PTSUNNY   79  54  41 SE25G35   30.02F
SWIFT CURRENT  SUNNY     77  57  50 SE16G26   29.94F
$$
NOTE: THESE ARE AUTOMATED STATIONS WITH LIMITED QUALITY CONTROL
      "FAIR" INDICATES FEW OR NO CLOUDS BELOW 12,000 FEET WITH NO
      SIGNIFICANT WEATHER AND/OR OBSTRUCTIONS TO VISIBILITY.
      SKY/WX - SKY CONDITION AND SIGNIFICANT WEATHER.
      TMP - AIR TEMPERATURE.    DP   - DEWPOINT TEMPERATURE.
      RH  - RELATIVE HUMIDITY.  PRES - PRESSURE.
      HX  - HEAT INDEX.         WCI  - WIND CHILL INDEX.
$




USA.gov is the U.S. government's official web portal to all federal, state and local government web resources and services.